Wind_Speed
5 3 4 4 5 6 4 4 4 5 6 6 6 7 8 9 9 9 9 10 7 5 6 6 6 8 8 8 10 11 13 15 12 12 17 19 18 16 16 15 12 10 8 7 7 5 2 1 4 6 6 4 3 4 2 3 4 2 2 1 2 2 3 5 6 6 3 2 3 4 8 6 3 5 6 3 5 8 8 12 13 13 14 12 8 11 21 27
4 4 4 3 4 3 2 3 4 5 5 5 6 7 8 8 8 9 9 11 9 7 6 6 5 4 3 3 5 7 10 13 10 13 21 18 16 17 16 14 10 7 6 4 5 5 5 4 1 3 4 3 1 3 1 3 4 2 3 1 3 4 5 5 6 6 4 3 2 3 7 8 6 6 8 4 4 7 7 9 11 12 12 12 11 17 25 27
4 4 3 2 2 1 2 4 4 4 5 5 5 6 7 8 8 8 9 10 10 9 8 6 4 4 5 3 2 4 7 11 13 16 19 17 18 18 16 12 8 5 5 4 4 5 5 4 4 1 2 2 0 1 1 3 3 2 2 1 5 5 4 6 8 7 7 6 3 3 6 8 8 6 7 5 3 4 8 11 11 14 16 15 17 22 27 28
4 3 2 2 1 2 3 4 4 4 5 5 5 5 6 7 7 8 8 9 9 9 8 6 7 10 7 1 1 2 3 8 16 18 17 17 18 17 16 12 8 6 4 4 4 4 4 4 3 2 1 1 1 1 1 3 2 2 4 3 4 3 2 6 7 7 7 6 4 3 3 5 9 9 9 6 2 5 13 19 18 20 21 19 22 25 29 29
3 3 3 3 2 3 3 4 4 4 5 5 5 6 6 7 7 7 8 8 7 6 5 5 8 14 14 9 4 3 1 3 12 16 15 16 16 16 17 14 10 7 5 4 4 4 3 3 3 2 1 0 2 1 1 3 2 1 4 5 3 4 2 5 4 6 7 5 4 3 3 5 6 9 14 11 7 10 13 16 16 19 21 20 23 27 30 31
3 3 3 3 3 3 3 4 4 5 5 5 5 6 7 7 8 8 7 7 6 4 2 3 7 12 15 16 11 7 7 4 9 14 13 14 14 15 16 15 12 9 6 4 5 5 3 3 3 2 2 1 1 0 1 3 0 1 4 4 3 4 4 6 5 6 7 5 4 3 5 6 5 6 12 17 20 22 17 13 10 11 16 20 22 27 31 32
3 3 3 3 4 4 3 4 4 4 5 5 5 6 8 8 8 8 7 8 7 5 2 2 5 7 8 10 9 12 16 10 11 11 10 12 12 13 15 15 14 11 8 5 5 6 5 5 3 1 2 1 1 1 2 4 2 3 3 3 3 6 8 9 8 9 8 7 7 5 6 7 8 6 6 17 29 27 23 19 14 11 13 20 23 27 30 32
3 3 3 4 4 4 4 3 4 4 5 5 5 7 8 8 8 7 7 9 8 8 5 3 4 4 5 5 5 14 18 13 11 9 8 11 11 12 13 13 13 11 9 8 8 8 7 6 4 2 1 0 1 1 3 4 1 3 3 5 4 6 9 10 11 12 10 8 8 6 8 9 9 7 6 21 33 26 23 24 21 16 15 22 26 28 31 32
3 3 4 4 4 4 3 3 3 4 4 3 3 5 6 7 7 7 8 8 10 11 9 7 4 3 5 4 5 11 14 12 10 8 7 8 10 12 12 13 15 13 12 12 11 9 7 5 4 3 1 1 2 1 3 2 2 1 3 7 7 8 10 11 11 10 8 8 6 6 10 9 7 5 10 25 30 22 21 21 21 18 18 24 27 29 31 33
4 4 4 4 3 3 3 3 3 4 3 2 3 4 5 6 6 7 8 8 9 10 12 12 9 7 5 4 9 10 10 12 9 7 5 6 8 10 11 14 15 15 14 12 12 11 8 6 4 3 1 1 2 2 3 1 3 4 7 10 10 11 11 10 10 8 6 6 5 7 9 7 4 1 9 20 16 13 16 17 18 18 21 25 28 29 30 31
4 4 4 3 3 3 4 4 4 4 3 3 4 6 6 7 5 6 6 7 7 6 9 12 12 12 9 11 18 12 11 13 9 7 6 5 7 10 13 15 15 16 14 13 12 12 11 8 5 3 2 1 1 2 1 1 4 6 8 10 10 10 10 7 7 6 5 4 4 7 7 3 2 2 14 21 12 11 13 14 17 19 23 26 28 29 29 29
4 4 4 4 4 5 5 5 5 5 5 5 6 7 8 8 8 7 6 6 6 6 5 6 7 7 8 17 23 15 13 15 11 9 8 6 8 11 13 15 15 14 13 13 12 11 10 9 6 4 1 1 1 1 1 4 5 5 5 6 8 10 8 5 3 4 5 3 4 4 6 2 5 9 21 20 12 11 12 14 18 20 23 25 27 28 28 27
4 5 5 6 6 7 7 6 6 5 5 6 8 9 10 9 9 8 7 7 8 9 8 7 7 6 9 16 20 17 15 17 13 8 7 7 8 10 12 14 14 13 13 12 12 11 10 8 7 5 3 2 0 1 3 6 4 4 3 2 5 9 5 3 3 3 7 4 1 3 7 5 6 15 21 15 12 12 13 16 18 21 23 25 27 27 28 26
5 6 7 8 9 8 7 6 5 4 4 6 8 10 10 9 10 9 8 7 6 6 6 6 6 8 12 13 15 19 17 17 14 8 7 6 6 8 10 14 13 12 11 10 10 10 9 7 7 6 5 5 1 1 4 5 4 3 2 2 3 4 5 5 5 5 6 2 2 3 6 9 5 12 16 14 13 12 14 17 18 21 23 25 27 28 27 25
7 9 10 11 10 9 8 7 5 3 3 5 5 6 8 8 8 8 8 8 7 6 5 5 4 5 11 11 11 18 19 19 18 16 14 9 9 9 9 12 11 10 10 9 10 10 8 5 5 7 5 6 5 1 3 4 4 3 3 4 3 2 6 9 6 2 2 1 2 4 6 10 6 8 11 10 11 13 15 15 17 21 23 25 27 28 26 23
10 11 12 12 11 10 8 7 5 4 3 3 3 3 5 5 5 7 9 10 11 10 8 6 6 6 8 7 8 16 22 24 22 20 16 12 12 11 11 11 9 10 9 7 9 8 6 4 5 8 7 6 5 3 4 4 4 3 3 4 5 4 6 8 4 0 1 1 1 1 5 10 6 5 10 11 10 13 13 12 16 20 22 25 27 27 25 22
11 12 12 11 10 9 8 7 9 10 9 7 5 3 3 4 4 4 5 7 8 9 11 9 6 7 10 8 8 15 21 24 23 19 14 13 12 10 11 10 8 10 8 4 6 9 6 3 4 5 8 6 2 3 6 5 5 4 3 2 4 4 5 7 6 1 2 2 2 3 6 14 13 10 17 17 13 12 12 12 15 19 22 25 26 25 23 22
11 11 9 7 7 7 7 8 11 15 17 17 15 13 12 11 8 5 2 2 3 4 8 11 7 5 8 13 13 14 14 20 24 20 15 13 10 10 13 11 10 11 6 1 5 11 8 4 4 2 5 6 3 6 5 3 3 4 4 4 5 3 4 7 8 5 3 1 4 4 8 16 15 13 16 15 9 9 11 11 13 18 22 25 25 23 23 23
10 8 6 7 7 7 6 7 10 13 16 16 17 18 17 17 17 17 16 14 13 8 4 11 11 4 1 11 16 12 9 16 24 22 17 15 9 9 14 11 10 15 10 3 7 12 8 4 5 4 5 5 3 4 2 4 5 5 5 4 5 7 6 8 11 8 3 4 5 6 10 14 14 13 11 13 9 6 9 8 10 17 22 24 24 23 24 22
8 6 6 7 8 8 7 6 7 7 7 7 6 6 5 8 11 16 25 28 24 17 9 12 14 7 2 8 15 14 8 10 22 27 23 20 11 6 14 13 11 19 14 2 5 9 7 5 5 3 4 5 4 3 4 3 3 3 4 3 5 7 8 8 11 7 2 3 5 6 10 12 13 12 9 14 10 4 5 5 9 15 21 23 23 23 24 21
7 7 7 7 8 9 8 6 6 5 6 4 2 1 2 3 5 8 18 23 20 17 16 17 16 13 8 9 15 15 10 9 19 29 27 24 16 6 14 16 9 12 10 5 4 4 5 6 4 4 5 3 3 2 4 2 1 2 3 5 5 5 9 10 10 7 4 2 6 5 12 13 10 8 9 15 10 8 11 4 8 13 18 19 22 24 22 18
8 8 7 8 8 9 8 6 5 5 6 6 5 7 9 10 12 11 13 14 13 15 16 17 18 17 12 11 14 14 15 15 20 30 30 27 20 10 12 14 6 3 8 6 3 4 6 4 5 4 2 2 4 3 3 1 1 2 2 3 6 4 8 9 6 2 3 4 9 9 12 12 7 4 7 13 9 10 15 6 5 12 17 17 21 23 20 18
8 8 8 8 9 9 8 6 5 4 4 5 6 10 13 14 15 13 12 11 10 13 13 15 18 19 15 14 14 12 16 17 16 27 33 27 20 14 11 10 5 2 6 6 5 4 4 2 4 2 2 3 3 4 3 3 2 2 3 3 6 5 5 6 5 5 4 5 8 9 10 7 4 3 5 13 13 14 18 13 7 10 16 17 20 20 18 16
7 7 8 8 8 8 7 7 6 4 4 4 5 8 10 11 11 9 8 7 5 9 12 12 15 19 17 16 16 9 11 17 16 23 30 27 17 10 8 7 5 5 5 4 5 4 1 3 2 2 3 2 3 5 4 4 5 4 4 3 6 7 4 7 11 12 10 3 2 7 9 4 2 3 3 9 14 18 20 20 19 17 18 20 21 19 16 13
6 6 7 7 7 7 6 6 6 5 4 4 5 6 6 6 4 3 4 5 2 7 11 9 11 16 17 18 18 6 5 14 18 21 27 26 15 5 5 6 5 6 4 2 4 3 1 3 2 2 3 4 4 4 3 3 5 6 5 4 5 9 9 12 13 12 9 3 3 7 6 4 1 4 4 5 9 13 17 20 21 21 22 21 20 16 13 15
5 5 5 6 6 7 6 5 6 5 3 4 4 3 4 3 1 1 2 4 3 6 9 8 7 13 16 19 20 6 4 8 15 20 25 24 14 4 4 6 4 4 3 0 2 1 1 2 2 3 3 5 6 3 1 2 5 6 3 2 4 8 11 14 13 7 4 4 3 4 1 4 4 4 4 4 7 9 12 14 17 21 22 18 16 13 15 20
4 4 4 4 5 7 6 5 5 3 2 3 3 3 4 2 1 1 1 5 5 4 6 6 6 11 13 16 20 7 2 10 10 17 24 22 14 6 5 6 2 2 3 0 3 1 2 6 5 5 5 5 6 4 2 1 4 5 3 2 8 12 13 13 10 4 2 4 5 2 2 3 4 2 2 2 7 9 9 9 12 17 16 13 13 16 20 22
3 2 2 4 5 6 5 5 4 3 2 2 2 2 4 2 2 2 4 4 4 3 4 5 4 10 9 10 18 12 4 10 7 11 21 21 15 7 7 6 0 3 3 3 4 3 2 5 6 5 5 5 3 3 3 2 1 6 6 6 10 12 11 9 7 5 2 3 4 3 2 3 5 2 1 1 4 7 7 6 8 11 10 10 15 21 24 24
1 1 3 5 5 6 5 5 4 2 2 2 3 3 3 3 2 2 6 3 3 3 3 5 5 11 11 5 13 14 8 10 8 9 17 22 18 6 5 5 3 2 2 4 2 2 2 2 2 1 3 2 3 6 5 3 3 9 9 8 9 7 3 3 4 4 1 3 2 5 3 3 7 4 2 2 3 3 4 4 5 7 7 10 19 25 27 29
1 3 5 6 7 7 6 5 3 1 2 2 2 3 3 3 3 4 4 1 2 3 4 6 4 10 14 5 9 15 8 9 12 12 15 20 22 15 6 3 8 4 1 5 2 3 4 1 1 2 2 2 4 7 5 4 3 10 8 8 7 2 2 2 2 2 3 2 3 4 2 2 7 3 2 3 3 1 3 4 6 9 12 16 21 26 29 31
4 6 7 9 9 8 7 5 2 1 1 2 2 2 3 1 4 7 2 2 1 4 4 5 3 6 10 5 4 11 6 7 13 11 9 11 17 22 12 5 9 6 3 6 5 7 6 2 1 1 1 2 2 4 3 2 2 7 5 6 8 4 2 3 3 4 3 4 3 3 1 2 7 3 3 4 4 4 5 5 6 10 15 20 23 27 30 32
7 9 10 10 8 7 5 3 2 2 2 2 3 2 2 2 4 3 1 3 2 3 2 1 3 4 6 3 2 6 4 5 9 6 4 5 8 12 9 3 5 5 5 6 5 7 4 1 3 2 0 4 3 3 4 2 5 7 5 7 9 7 6 5 5 4 2 5 3 4 7 5 4 1 3 4 4 6 7 8 8 11 17 22 26 29 31 32
8 9 8 7 5 3 1 3 2 2 3 3 3 1 4 5 1 2 2 3 1 2 1 2 3 3 2 3 4 4 2 3 7 5 2 3 5 3 3 4 4 3 2 4 4 6 4 3 5 2 0 4 5 5 5 4 5 7 5 5 6 5 5 6 6 6 6 9 8 8 6 3 2 1 3 4 4 6 9 12 14 15 17 22 27 29 31 33
7 6 6 5 3 2 1 2 2 3 3 3 3 1 6 4 1 1 2 3 1 2 1 1 4 4 3 3 3 3 2 2 4 5 4 4 5 3 3 7 8 3 0 2 3 3 4 5 4 3 3 5 6 5 1 1 2 2 1 3 4 2 1 4 5 6 9 12 11 7 0 2 5 3 3 5 5 4 8 15 18 19 21 25 28 30 33 35
5 6 6 5 4 2 1 1 3 3 4 3 3 5 4 2 3 1 2 4 1 2 2 1 3 4 3 3 3 1 1 2 2 4 5 4 3 2 3 4 6 4 2 3 1 1 2 5 5 2 3 2 4 2 1 2 1 2 2 4 3 1 2 3 5 5 8 10 9 3 1 3 1 2 3 4 2 3 10 17 21 23 28 30 32 34 35 36
5 6 6 5 4 1 1 1 4 4 4 3 6 5 2 3 2 3 3 1 0 0 2 2 4 5 3 4 4 3 1 1 2 4 3 2 1 1 1 1 3 4 3 2 1 2 2 5 6 5 3 2 5 4 2 3 1 1 3 3 4 1 4 1 5 5 6 9 6 1 3 4 1 2 0 1 2 7 12 16 21 26 30 31 32 34 36 38
4 6 7 5 4 2 1 3 4 4 3 3 7 3 3 2 2 3 2 1 1 2 3 1 2 3 2 3 4 6 4 2 3 4 2 1 1 1 2 1 1 3 2 1 1 1 0 5 7 4 2 1 4 4 4 5 3 3 4 5 3 1 4 2 4 5 6 8 6 4 8 8 4 2 2 1 6 9 10 13 19 25 28 30 32 35 37 36
3 5 6 5 3 2 2 4 4 4 3 5 6 2 2 1 2 3 2 2 1 2 5 3 0 1 1 1 3 5 5 3 3 4 2 1 2 2 2 1 1 3 3 1 0 1 1 4 6 1 2 6 4 5 3 5 5 5 1 3 2 3 3 3 2 4 6 8 9 10 11 7 2 3 2 3 6 9 10 12 16 21 26 30 33 35 36 32
4 3 6 6 3 4 5 5 3 3 4 6 3 2 1 1 2 2 2 1 1 2 3 1 0 2 2 2 1 3 3 3 2 3 2 2 2 2 2 1 1 5 5 1 2 1 1 1 4 3 4 6 4 3 1 4 4 4 2 3 3 1 2 0 1 1 2 5 9 13 12 5 1 2 4 4 6 9 11 12 15 20 28 32 33 35 35 32
2 1 4 5 3 4 4 5 4 4 5 4 3 2 0 1 2 2 2 0 1 2 2 2 2 2 0 1 1 1 2 2 1 2 1 1 1 2 3 1 1 5 5 1 2 1 1 1 3 5 4 4 3 1 1 2 2 4 3 4 5 1 2 2 1 2 2 3 7 10 11 6 1 1 2 3 5 8 13 16 17 24 33 34 34 38 38 32
1 1 3 3 3 3 3 6 8 7 5 3 2 1 1 2 3 2 2 2 2 2 2 4 3 2 1 1 1 1 1 2 1 1 1 1 2 2 3 2 1 3 3 2 2 1 1 1 2 5 5 3 3 2 3 4 2 3 2 2 3 2 2 4 4 1 3 1 4 5 9 8 3 1 2 0 5 11 21 25 22 27 33 31 37 43 36 29
1 1 3 4 3 2 4 7 7 5 4 3 3 2 2 2 3 2 2 2 2 2 3 3 2 2 2 1 1 2 1 1 1 1 0 1 1 1 3 4 4 2 1 1 0 1 1 2 1 5 5 5 4 1 1 2 5 5 3 2 2 1 4 3 3 4 1 3 4 5 9 7 0 3 3 2 11 21 29 31 27 28 28 30 42 43 29 25
4 3 2 2 3 3 5 5 5 5 4 3 3 4 3 3 3 2 1 1 1 1 2 1 1 1 1 2 1 2 2 1 1 1 1 2 1 1 3 5 5 2 0 0 1 0 1 2 1 5 5 3 2 2 1 2 5 5 3 3 3 2 2 5 4 3 3 4 3 5 9 6 0 2 7 13 21 26 28 30 30 28 26 35 47 39 24 26
8 8 7 3 2 2 3 3 2 2 2 2 3 4 3 2 3 2 1 1 1 2 2 1 1 1 1 2 2 2 2 1 2 1 1 2 2 1 3 4 4 3 2 1 1 3 2 0 2 4 6 5 4 4 3 2 2 2 2 2 3 4 2 1 1 2 1 4 5 7 9 8 6 11 16 18 22 23 25 30 31 26 27 39 44 32 24 30
4 6 10 9 1 2 4 6 7 5 3 3 4 2 2 3 3 3 2 2 2 2 2 1 2 2 2 2 2 1 0 1 0 1 1 1 2 1 2 3 2 3 3 2 1 3 1 0 2 4 4 6 6 6 6 6 6 2 2 3 4 4 3 1 0 1 2 4 5 6 9 14 16 16 16 16 16 19 23 30 30 25 30 40 39 28 26 35
2 2 4 8 9 10 12 10 9 8 5 4 4 1 1 2 1 2 3 2 2 2 3 2 3 2 2 2 2 2 1 2 2 1 1 1 2 1 2 2 1 2 2 1 2 2 2 1 2 5 4 5 7 9 10 7 7 7 4 4 4 2 3 2 1 2 5 8 6 6 11 19 21 19 17 17 16 15 20 29 28 24 33 41 35 29 32 41
2 1 1 3 7 12 14 11 9 8 5 4 3 1 2 1 1 1 2 1 2 2 2 2 2 2 1 2 2 0 1 2 3 1 1 1 3 1 1 1 2 2 1 1 3 3 3 1 2 5 7 9 9 12 13 9 7 9 5 1 3 4 4 3 2 4 6 8 9 12 16 20 21 18 16 17 16 14 20 28 28 28 38 41 35 35 42 46
1 2 3 3 2 4 6 5 8 11 7 3 3 2 1 1 1 1 1 1 2 1 1 1 2 2 1 2 3 1 0 2 1 1 1 1 3 2 2 1 1 2 1 2 3 3 4 2 3 4 6 10 10 13 13 8 6 4 1 1 1 4 3 1 5 8 5 5 11 18 20 19 18 16 15 18 19 19 24 29 30 37 43 39 35 40 45 43
4 6 6 6 5 5 6 6 9 12 8 4 3 1 3 4 3 2 2 1 1 0 1 1 2 2 1 2 4 2 1 1 1 3 2 2 2 0 1 0 0 1 2 2 3 4 2 2 2 2 7 10 11 12 9 5 5 2 2 2 2 3 6 6 7 8 7 10 14 17 19 17 13 11 16 22 25 28 31 32 34 40 39 33 36 42 41 38
6 5 6 10 11 9 8 6 6 7 5 3 2 1 3 6 4 2 2 2 1 1 0 1 2 2 2 3 4 3 4 5 3 3 4 3 2 1 2 2 2 1 3 2 1 2 1 2 1 2 5 9 8 7 5 4 5 4 3 3 4 4 6 5 5 6 7 11 14 13 14 13 9 12 21 26 29 30 31 33 36 36 31 31 37 39 37 38
4 4 7 12 9 5 3 2 3 4 2 1 2 3 3 4 5 4 3 1 2 2 1 3 4 3 1 2 3 3 3 4 4 3 4 4 3 3 2 2 4 1 3 1 0 2 2 2 2 5 4 7 3 4 8 3 2 3 3 4 4 4 4 4 5 6 10 14 15 11 9 7 9 18 24 26 30 29 26 30 35 32 28 31 37 36 36 38
4 8 10 8 4 2 1 1 2 4 3 2 3 4 3 3 6 6 3 0 2 3 3 4 6 4 1 1 3 2 1 2 2 3 3 4 4 3 2 3 4 3 1 3 1 2 2 1 2 3 3 6 1 8 13 4 6 1 4 4 4 4 6 6 7 9 8 6 6 6 6 7 15 21 20 21 25 24 23 29 31 27 28 33 34 34 35 34
Wind_Direction
81 68 43 31 32 37 30 9 357 24 54 65 64 59 58 55 46 38 32 32 42 78 105 104 98 93 80 71 59 47 45 33 16 30 37 28 11 358 352 345 342 353 7 18 23 28 25 312 240 239 252 267 334 355 9 18 20 39 92 97 259 218 198 194 190 198 186 267 282 212 197 197 235 202 191 215 212 215 220 217 218 216 223 235 231 195 184 180
84 74 57 37 34 35 14 1 18 47 66 70 69 64 55 45 38 35 33 35 44 76 99 105 107 83 47 43 41 32 36 27 13 30 32 21 6 2 358 350 341 348 6 12 18 31 41 42 8 237 236 235 325 349 36 19 23 77 116 141 232 206 210 210 200 203 201 239 258 222 209 208 229 202 189 218 226 211 224 227 220 223 223 219 202 182 182 180
85 82 71 56 50 30 12 18 40 65 72 71 70 58 44 34 33 38 38 39 52 78 89 89 65 354 331 313 352 17 25 23 22 27 22 13 9 8 8 1 348 350 0 8 20 25 33 42 38 62 198 194 357 359 54 18 17 108 126 251 239 213 242 249 230 225 229 246 255 234 215 216 231 207 189 214 239 214 229 232 214 220 220 199 186 181 182 181
91 105 110 92 83 34 32 45 64 80 71 67 61 44 34 32 39 47 45 45 61 78 80 73 35 14 8 317 225 344 8 27 24 20 14 13 13 13 19 17 11 12 9 16 22 20 30 35 25 35 143 181 358 2 28 13 4 161 156 216 229 180 254 262 246 249 245 248 254 228 202 237 236 212 204 203 232 246 240 243 239 240 231 200 188 185 184 183
118 114 101 84 67 47 49 69 79 81 69 61 51 39 39 43 50 57 50 48 60 74 78 63 37 42 52 62 63 352 348 23 12 15 15 16 19 19 25 31 33 31 23 23 23 20 20 16 9 17 50 108 14 16 20 22 35 189 209 234 223 155 225 280 269 264 251 240 243 204 196 250 226 210 218 204 214 246 251 261 260 256 244 218 202 192 187 185
143 105 79 67 58 64 69 83 83 76 68 54 46 44 51 54 60 64 56 48 47 53 67 23 30 46 52 55 53 48 81 69 3 16 16 20 28 26 27 31 37 37 27 16 11 16 12 4 350 353 39 48 12 14 9 4 24 254 265 264 258 208 233 284 288 279 265 241 231 215 232 238 200 225 232 218 235 251 257 270 271 258 241 226 211 198 193 188
134 92 72 64 64 77 80 85 82 73 63 52 54 58 60 60 64 66 56 49 43 38 29 333 17 36 39 48 54 63 71 52 16 20 18 31 37 31 31 29 30 26 14 2 3 6 352 350 343 16 65 34 296 190 358 334 199 186 271 306 292 246 249 275 289 289 278 252 248 247 245 230 208 240 238 234 253 259 257 260 262 259 231 216 208 201 198 192
117 87 72 71 72 77 78 79 75 67 58 56 64 64 63 61 62 63 55 54 51 42 34 10 17 21 19 31 58 59 49 26 19 29 28 41 40 35 38 34 33 24 13 10 6 357 342 344 345 359 55 275 227 194 359 329 227 156 258 310 309 271 271 282 291 291 283 258 254 248 244 241 232 243 245 258 269 269 259 258 257 255 228 210 207 203 198 191
107 85 74 77 73 71 71 68 64 60 53 55 62 57 53 50 53 59 58 54 54 56 57 57 46 28 28 36 72 55 30 7 12 24 30 42 37 33 33 33 34 27 24 21 10 360 354 2 1 343 282 172 149 65 31 359 304 220 279 304 296 284 294 294 290 291 286 264 246 238 252 256 249 264 267 267 274 273 261 255 251 246 224 209 204 201 196 189
97 80 79 73 63 57 51 55 58 57 53 48 38 33 34 39 51 62 61 50 52 65 66 65 63 55 61 80 76 59 17 7 7 9 16 24 22 16 16 23 25 21 21 20 14 12 11 11 3 354 341 100 109 30 32 60 294 309 309 298 282 285 297 292 286 298 300 279 251 241 259 262 235 225 270 270 278 274 258 244 240 232 218 207 200 196 191 184
84 77 73 55 46 44 49 63 66 66 58 43 35 40 45 48 64 75 68 53 50 65 70 76 75 66 73 75 69 56 15 11 358 356 5 352 354 354 4 14 14 14 14 14 17 18 17 16 6 355 354 49 28 342 26 13 304 306 324 304 290 310 311 291 294 326 337 305 286 260 259 253 153 172 257 267 280 272 253 234 229 218 208 200 193 188 181 177
78 71 56 46 52 62 75 77 73 71 57 47 50 60 66 65 78 92 84 69 66 70 79 96 82 60 60 60 57 44 22 15 354 351 353 335 346 348 357 7 5 7 9 10 14 18 21 25 24 15 27 194 302 5 3 346 323 299 350 320 306 346 339 321 15 31 15 330 319 306 280 237 154 234 260 268 274 258 240 227 218 204 198 190 184 179 172 169
76 61 57 66 79 84 84 74 67 67 59 67 73 74 75 74 82 91 91 88 83 79 81 88 80 68 67 62 50 40 31 19 3 349 343 342 353 348 348 357 357 358 1 5 8 12 22 31 35 38 65 72 37 45 306 327 340 300 11 28 323 351 337 345 48 353 343 318 287 19 302 282 196 240 263 270 261 242 222 217 206 193 189 183 178 172 166 165
72 70 80 89 90 85 74 65 63 67 79 87 84 76 69 75 84 84 84 86 86 83 81 84 83 67 70 74 49 36 32 23 13 1 5 5 356 348 345 349 351 349 351 1 5 8 23 31 27 36 57 40 17 255 312 344 18 315 324 55 15 351 294 313 341 320 345 342 155 98 282 283 253 254 273 272 255 238 223 214 198 190 185 178 174 168 165 165
84 94 98 94 87 80 72 67 61 68 101 103 93 69 58 74 80 71 72 70 68 70 69 87 103 74 67 71 43 29 27 25 19 11 11 9 357 356 351 350 351 348 344 359 9 8 11 13 27 40 41 21 22 14 345 356 15 15 350 332 347 344 289 308 327 322 333 311 126 121 262 284 275 261 284 282 256 241 232 216 197 191 183 177 172 168 169 168
103 107 102 92 82 75 68 65 65 68 95 122 121 67 55 67 64 80 86 71 66 63 58 77 91 80 60 48 27 24 24 23 20 14 7 3 1 1 1 358 355 350 341 344 4 4 353 358 62 56 44 31 33 41 32 14 345 19 32 313 300 312 315 316 320 135 173 186 104 155 257 286 279 267 300 301 275 248 232 220 203 193 184 178 173 172 172 166
113 110 102 89 75 69 67 78 85 80 83 95 98 77 68 59 55 107 103 62 63 60 56 64 84 82 55 36 18 15 21 21 18 16 10 3 4 7 7 5 6 357 342 322 356 6 7 47 91 57 45 49 42 51 38 12 328 333 19 319 281 281 308 313 300 307 78 117 278 253 241 271 277 288 300 300 286 255 233 228 209 193 188 180 176 176 172 162
117 111 97 74 63 70 81 93 92 88 88 89 88 85 81 73 70 94 108 47 46 52 50 41 52 99 49 26 13 2 15 22 17 19 17 9 15 25 19 17 20 9 3 48 9 13 18 51 90 52 30 28 19 56 45 328 273 288 313 303 297 283 260 285 285 294 13 305 252 258 261 273 283 291 301 315 313 266 246 240 215 196 190 182 178 175 167 159
118 106 81 64 68 80 98 105 95 92 88 86 91 91 88 82 77 74 74 76 67 68 52 22 33 103 358 3 10 8 16 23 20 22 20 17 27 31 23 22 20 22 35 49 359 12 20 30 51 30 360 348 347 81 144 215 204 244 271 256 284 294 273 267 273 279 345 307 257 243 263 276 296 302 321 355 348 283 259 237 206 195 187 181 178 168 160 154
116 93 77 75 77 82 96 103 93 87 72 70 90 100 104 88 73 63 64 68 68 72 70 43 44 63 50 356 10 19 23 24 22 24 24 19 19 16 18 15 12 27 37 3 319 1 29 48 38 337 287 286 270 202 174 178 177 238 272 263 268 277 286 280 274 283 35 316 261 234 268 283 301 306 348 8 360 339 303 229 189 186 182 177 172 161 155 148
106 86 83 79 72 75 82 82 77 72 57 46 53 117 188 100 83 76 70 69 68 68 59 51 48 44 38 13 13 18 22 28 22 23 24 18 20 21 13 15 21 26 10 307 282 331 38 60 8 285 240 262 291 176 138 116 165 260 272 292 295 265 281 281 274 300 34 348 287 297 305 301 309 319 6 11 10 13 350 290 190 176 172 170 164 155 148 138
97 87 85 75 67 66 66 68 72 78 74 68 77 93 99 98 97 96 92 85 67 59 50 44 44 38 34 21 15 16 20 24 16 18 20 16 25 35 15 23 51 24 342 344 354 352 41 53 320 307 179 94 41 82 110 85 203 264 283 314 313 300 302 291 256 274 48 332 308 328 320 306 324 14 34 20 17 14 7 359 192 171 160 156 153 147 137 126
97 87 83 70 62 57 52 56 59 70 89 83 87 95 97 99 99 92 92 97 70 48 38 35 35 29 29 21 11 17 31 31 11 10 14 14 24 34 26 30 43 8 355 21 51 36 38 330 310 359 106 102 22 25 56 25 357 287 315 323 298 317 338 311 286 296 318 298 298 319 314 304 1 71 54 26 29 34 37 56 95 139 142 136 136 132 120 111
98 85 76 62 55 48 44 47 45 58 94 110 106 104 107 103 99 94 86 98 79 34 29 28 25 21 22 16 7 14 47 40 19 8 11 14 20 27 29 27 27 24 2 29 77 77 3 282 320 45 64 67 340 353 44 20 345 305 289 259 282 313 309 276 294 311 316 312 332 337 325 314 41 49 20 18 32 39 48 64 74 90 110 114 113 107 94 73
96 81 72 58 50 38 37 40 38 57 92 126 130 113 117 114 96 88 75 92 63 4 14 13 15 16 12 10 8 15 83 41 23 10 10 16 21 27 28 20 24 16 343 23 80 63 343 288 345 21 6 35 30 2 30 19 347 318 283 226 265 304 295 284 300 322 329 329 35 13 349 299 321 45 22 2 30 40 47 58 65 77 91 96 92 82 57 20
93 84 72 56 43 31 29 29 27 44 76 122 152 147 147 159 96 83 78 75 14 333 358 3 8 11 7 7 6 18 120 23 16 14 12 16 23 60 32 5 31 19 323 353 82 64 348 331 45 49 354 21 44 19 329 36 4 327 273 209 277 293 292 295 306 327 324 292 321 32 74 264 307 15 10 18 53 51 48 53 59 69 78 82 71 46 11 357
98 94 69 40 31 23 17 17 17 27 78 119 151 175 186 193 142 165 69 48 8 321 350 358 2 4 5 11 13 46 115 338 359 20 15 14 20 68 56 360 22 8 303 67 39 335 320 351 12 34 27 35 35 359 284 102 5 303 248 311 310 298 293 297 304 295 256 297 326 17 140 249 292 330 317 49 68 59 51 49 53 64 73 72 43 8 350 344
105 93 33 11 9 4 360 6 9 24 79 109 98 139 172 160 163 163 88 71 341 327 358 350 0 4 7 27 33 62 75 352 6 12 14 20 17 54 73 29 246 273 315 63 33 320 305 1 359 12 32 35 11 302 261 157 337 275 280 310 292 283 286 292 298 279 271 352 334 332 31 298 286 297 315 27 77 69 59 48 45 59 68 47 12 352 343 338
106 344 341 341 339 336 333 340 348 21 85 105 73 95 138 120 147 87 80 105 314 347 2 344 351 353 355 30 35 40 47 26 25 359 16 31 24 41 113 47 71 179 329 56 78 302 320 340 320 64 67 14 281 270 264 172 238 286 301 305 280 268 284 305 301 286 317 55 300 299 19 345 305 320 14 1 55 71 69 71 49 43 36 11 353 345 343 339
313 316 323 317 313 314 309 313 327 20 102 130 89 88 113 96 91 69 59 187 327 336 321 351 345 339 353 18 18 14 26 25 14 8 23 36 34 47 106 45 36 79 9 16 46 319 337 253 244 84 106 279 270 285 287 176 254 311 318 317 309 302 92 63 354 346 7 11 266 262 100 21 308 313 67 343 345 97 98 71 28 12 3 351 345 344 342 339
315 312 309 303 299 298 292 288 289 183 135 155 157 120 129 63 66 90 89 251 323 335 339 6 344 349 16 45 1 355 5 8 7 17 20 20 31 38 48 22 7 24 25 11 352 331 357 78 343 12 80 329 290 291 312 151 343 342 338 337 344 349 29 16 4 41 13 306 263 229 216 308 298 302 70 14 20 82 95 63 23 1 352 347 343 341 339 337
317 312 304 302 297 292 279 255 226 189 201 192 197 200 150 36 26 97 272 307 327 342 359 335 329 10 26 37 355 338 339 353 5 32 27 9 36 35 37 33 346 1 12 6 349 340 1 119 323 320 176 350 338 303 334 21 9 6 5 7 10 356 350 345 340 9 304 267 269 299 302 302 279 264 89 67 62 88 91 65 29 357 349 346 342 339 337 337
322 318 314 315 312 310 274 208 202 189 209 207 208 217 85 78 41 220 276 328 348 340 335 252 318 355 356 7 3 336 348 349 352 13 16 34 61 49 29 30 21 29 350 347 0 353 338 301 340 19 291 354 28 17 349 342 358 7 13 29 30 2 339 319 315 328 304 289 310 321 303 287 300 333 113 123 126 109 72 40 12 356 350 343 339 338 337 338
332 342 349 354 8 10 93 164 181 183 199 198 183 89 63 79 193 204 267 279 277 334 353 258 327 352 45 46 344 318 24 359 347 14 8 29 52 22 2 10 17 44 159 358 17 11 2 323 337 43 327 336 37 46 329 261 344 337 164 110 63 29 303 283 292 311 310 302 312 334 332 254 314 338 136 154 154 109 39 10 359 354 349 343 341 341 339 339
3 14 12 9 16 18 57 178 192 181 194 187 94 68 82 166 220 164 229 256 284 320 319 5 21 24 17 352 330 337 76 324 344 45 25 30 69 19 358 344 356 23 56 28 349 357 23 277 270 341 318 327 44 16 256 106 34 261 146 90 10 317 194 232 242 255 292 298 301 332 152 233 282 76 120 159 176 31 6 356 354 351 347 346 344 342 340 339
31 21 14 10 6 356 65 171 176 166 189 168 67 58 139 191 203 174 196 251 14 342 324 352 40 42 345 318 339 4 47 301 343 46 33 33 104 40 17 287 334 15 58 76 301 335 10 275 287 346 350 91 59 346 327 52 351 287 47 12 305 251 144 241 281 270 305 308 293 305 314 301 93 91 69 199 323 357 356 350 350 346 344 344 342 340 340 339
17 12 8 5 360 345 206 183 166 167 193 119 79 96 206 195 183 187 182 152 142 102 78 64 24 27 340 309 322 330 345 329 348 33 41 13 52 58 42 323 331 9 34 102 241 265 299 282 301 356 335 327 29 34 64 51 35 49 7 321 294 93 110 83 316 310 323 308 290 322 326 323 342 331 278 329 351 349 343 343 345 342 342 342 340 340 340 338
355 6 5 2 9 23 167 174 167 175 154 80 82 137 189 169 207 203 165 125 145 86 77 99 13 27 163 242 308 315 341 354 358 27 43 2 30 83 65 5 356 3 1 64 167 233 151 294 305 349 264 295 360 69 58 10 37 77 18 315 15 357 352 29 332 300 325 316 303 315 321 318 311 306 317 341 345 341 335 340 343 341 343 342 339 340 340 342
309 335 8 12 53 90 109 131 148 158 100 74 102 165 137 172 208 182 166 121 105 91 77 137 194 51 149 179 281 308 347 13 6 26 62 32 6 62 78 70 336 350 343 88 150 251 133 324 298 278 275 307 1 64 352 325 3 44 50 14 22 286 249 310 220 241 339 319 305 311 319 325 246 277 327 345 343 340 339 342 341 342 344 341 340 342 343 343
309 317 8 15 87 107 106 112 89 68 73 92 153 167 114 192 175 145 151 94 82 84 80 174 150 57 263 201 183 313 9 48 42 32 53 25 4 43 58 76 309 337 338 70 124 315 30 120 265 281 309 340 358 41 144 175 346 7 22 4 353 338 211 247 246 121 98 309 308 310 311 317 340 249 315 351 345 344 345 345 343 342 341 342 345 344 340 341
26 23 5 22 96 123 114 83 59 58 81 102 135 124 68 157 145 125 119 114 87 75 114 152 138 117 148 83 99 222 15 39 45 43 4 16 47 24 13 26 324 325 351 53 75 358 346 149 244 296 332 338 282 231 181 183 139 63 57 28 13 7 12 351 324 344 125 271 293 291 294 305 339 121 170 276 338 350 351 347 343 340 339 344 346 341 336 340
79 70 15 36 76 123 108 69 41 46 93 87 77 100 120 129 125 118 123 118 87 77 100 121 119 121 142 128 149 179 137 60 38 66 155 204 72 337 330 358 345 305 169 112 274 213 165 113 237 275 271 270 282 309 129 153 112 98 87 87 103 86 75 71 304 305 321 285 270 256 283 299 316 170 179 348 348 352 350 345 339 336 339 346 344 338 336 342
81 79 22 39 83 97 92 67 24 28 70 93 86 89 102 114 106 109 128 94 72 102 75 79 128 102 161 181 146 162 159 151 197 159 169 224 240 278 304 351 360 336 144 86 344 25 108 89 342 280 268 274 314 353 18 109 100 82 49 65 104 93 113 171 210 319 325 287 301 293 287 291 151 297 329 348 349 348 345 340 337 335 341 346 341 336 338 343
79 64 39 27 233 222 94 110 122 68 76 117 85 61 59 82 76 68 135 80 69 129 96 79 151 108 150 158 108 161 179 129 203 215 122 194 226 288 307 349 15 23 48 124 4 351 339 349 8 342 336 341 343 338 320 310 11 50 75 70 83 79 44 232 157 28 272 250 308 310 290 294 317 328 338 347 346 342 339 338 337 337 343 344 338 334 338 342
82 63 44 42 41 185 105 118 136 134 149 124 83 40 29 66 63 50 89 99 79 112 106 95 160 131 134 131 73 74 209 47 156 256 56 189 243 281 319 340 14 39 58 144 267 345 338 171 77 69 5 326 314 309 302 309 329 352 95 50 35 70 71 52 120 327 281 281 294 278 279 299 313 327 339 345 343 337 336 338 339 340 341 340 336 334 338 341
135 102 39 41 56 81 88 98 113 119 146 135 87 24 53 87 55 44 80 94 75 97 97 105 167 153 102 93 61 17 325 29 54 101 126 232 256 264 333 1 63 45 43 66 348 19 97 118 154 152 185 244 255 267 282 306 315 303 331 13 353 5 72 62 31 297 295 297 283 264 289 305 315 329 338 340 340 337 335 337 337 338 339 337 336 338 339 341
116 102 17 46 57 70 75 77 92 108 139 142 109 182 183 138 329 47 75 88 91 116 107 87 128 123 86 89 73 343 279 17 23 83 137 256 268 284 343 48 66 22 22 43 360 45 93 333 249 182 211 239 248 266 282 298 290 284 301 344 303 332 30 44 314 268 289 309 306 307 313 312 315 328 337 336 338 337 333 334 335 338 338 337 338 341 340 340
111 124 105 109 98 72 67 68 98 104 103 106 113 156 157 123 167 155 140 106 87 130 143 51 23 31 158 157 119 126 348 27 351 247 154 256 289 350 8 358 34 9 31 57 22 72 109 255 243 198 246 260 261 268 274 277 272 267 238 178 297 333 338 248 247 260 279 297 292 302 314 313 312 325 335 334 334 331 328 332 336 337 336 337 341 342 340 339
124 122 99 98 107 106 107 120 117 103 81 66 101 149 165 158 181 203 167 99 34 22 128 124 306 311 233 177 126 132 199 126 280 267 192 179 256 357 67 295 261 8 26 59 40 64 109 246 236 225 281 277 265 269 269 252 246 213 163 246 267 267 262 251 250 259 250 249 271 296 309 308 310 326 327 325 329 329 328 334 338 335 334 338 343 341 338 338
148 141 120 109 97 87 101 125 123 100 65 48 102 166 174 164 181 200 157 126 139 259 108 149 216 216 198 172 143 165 213 181 179 237 186 164 280 219 166 200 190 17 13 61 54 31 43 301 305 89 313 292 269 275 280 236 233 210 188 261 272 265 268 258 258 270 267 273 288 303 307 300 308 323 320 323 330 331 332 336 336 333 335 342 342 339 337 337
173 164 144 124 98 49 70 121 114 103 83 45 139 172 196 192 182 154 125 130 169 181 186 161 161 150 109 167 188 226 232 183 178 218 191 184 228 204 183 189 167 121 7 72 328 354 56 335 352 62 345 286 249 320 316 323 107 160 211 270 289 295 289 254 251 284 300 305 309 313 307 295 313 324 324 328 332 331 333 334 331 331 339 343 340 337 337 336
160 147 147 130 94 23 97 104 69 102 143 190 155 160 187 192 173 147 119 330 181 144 146 159 155 146 121 187 212 233 233 203 243 269 235 218 225 212 214 211 176 169 164 126 52 330 98 57 335 53 324 273 300 331 312 347 75 74 241 226 221 258 289 287 294 301 303 314 314 303 292 300 321 328 328 330 330 330 333 333 329 332 342 342 338 337 337 337
Height
1538 1539 1539 1540 1539 1539 1539 1540 1540 1539 1538 1538 1538 1538 1538 1538 1537 1537 1536 1536 1535 1535 1536 1536 1537 1536 1536 1536 1535 1535 1535 1535 1535 1533 1532 1534 1534 1534 1533 1532 1532 1531 1531 1531 1530 1531 1531 1531 1531 1532 1532 1533 1533 1533 1533 1533 1533 1533 1537 1540 1539 1542 1541 1535 1535 1535 1532 1530 1530 1530 1530 1531 1530 1531 1531 1531 1531 1530 1530 1529 1529 1529 1528 1528 1529 1530 1531 1532
1539 1539 1539 1540 1540 1540 1540 1540 1540 1539 1539 1539 1539 1538 1539 1538 1538 1537 1537 1536 1536 1536 1536 1537 1537 1537 1537 1536 1536 1536 1536 1536 1535 1534 1534 1536 1535 1534 1533 1532 1531 1531 1531 1531 1531 1531 1530 1531 1531 1531 1532 1532 1533 1533 1533 1533 1533 1534 1539 1540 1538 1538 1535 1531 1532 1531 1531 1529 1529 1530 1530 1530 1530 1530 1531 1531 1530 1530 1529 1528 1528 1528 1528 1528 1529 1530 1531 1532
1539 1540 1540 1540 1540 1541 1540 1540 1540 1539 1539 1539 1539 1539 1539 1539 1538 1538 1537 1537 1537 1537 1537 1537 1538 1537 1536 1536 1536 1536 1536 1536 1535 1535 1536 1536 1535 1534 1533 1531 1531 1531 1531 1531 1531 1531 1531 1531 1531 1531 1532 1532 1532 1532 1532 1533 1533 1534 1537 1537 1534 1534 1532 1530 1530 1529 1529 1529 1529 1530 1530 1530 1529 1530 1531 1530 1529 1530 1528 1525 1526 1526 1526 1527 1528 1529 1530 1531
1540 1540 1540 1540 1541 1541 1540 1540 1540 1540 1540 1540 1540 1540 1540 1539 1539 1539 1538 1538 1538 1538 1538 1538 1538 1537 1535 1535 1536 1536 1536 1536 1537 1538 1538 1536 1535 1534 1533 1532 1531 1531 1532 1532 1531 1531 1531 1531 1531 1531 1531 1532 1532 1532 1532 1533 1533 1534 1535 1533 1532 1533 1532 1529 1529 1529 1529 1529 1530 1530 1530 1530 1529 1530 1530 1529 1529 1526 1523 1521 1522 1522 1523 1525 1526 1527 1529 1530
1540 1541 1541 1541 1541 1541 1540 1540 1540 1540 1540 1541 1541 1540 1540 1540 1539 1539 1539 1539 1539 1539 1539 1538 1539 1537 1536 1536 1537 1536 1536 1539 1540 1540 1538 1537 1536 1535 1534 1533 1532 1532 1532 1532 1532 1532 1531 1531 1531 1531 1531 1531 1532 1532 1533 1533 1533 1534 1532 1531 1531 1533 1532 1529 1529 1529 1529 1529 1530 1530 1530 1529 1528 1529 1528 1528 1526 1520 1518 1519 1520 1521 1522 1523 1523 1525 1526 1528
1541 1541 1541 1541 1541 1541 1541 1541 1541 1541 1541 1541 1541 1541 1541 1540 1540 1540 1540 1540 1540 1540 1539 1539 1539 1538 1538 1537 1538 1537 1536 1541 1543 1540 1539 1538 1537 1536 1535 1534 1533 1533 1533 1533 1533 1532 1532 1532 1531 1531 1532 1532 1533 1533 1533 1534 1534 1533 1531 1531 1532 1532 1531 1529 1529 1529 1529 1530 1529 1530 1529 1528 1528 1527 1526 1526 1520 1515 1517 1519 1519 1520 1521 1521 1522 1523 1524 1526
1541 1542 1542 1542 1542 1541 1541 1541 1541 1541 1542 1542 1542 1542 1541 1541 1541 1541 1541 1540 1540 1540 1540 1539 1539 1539 1539 1539 1539 1538 1537 1542 1542 1541 1540 1539 1538 1537 1536 1535 1535 1534 1534 1534 1533 1533 1533 1532 1532 1532 1532 1532 1533 1533 1534 1534 1534 1534 1532 1531 1531 1531 1530 1529 1529 1528 1529 1529 1528 1529 1528 1527 1527 1525 1525 1521 1514 1515 1517 1517 1518 1518 1519 1520 1521 1521 1522 1524
1542 1542 1542 1542 1542 1542 1542 1542 1542 1542 1542 1542 1542 1542 1542 1542 1542 1542 1541 1541 1541 1540 1540 1540 1540 1540 1540 1539 1540 1538 1539 1542 1542 1541 1541 1540 1539 1538 1537 1536 1536 1535 1535 1534 1534 1533 1533 1532 1532 1532 1532 1533 1533 1533 1534 1533 1533 1534 1533 1531 1531 1530 1529 1528 1528 1527 1528 1528 1528 1528 1526 1525 1525 1525 1523 1516 1511 1514 1516 1516 1516 1517 1517 1518 1518 1519 1521 1523
1543 1543 1543 1542 1542 1542 1542 1543 1543 1543 1543 1543 1543 1543 1543 1542 1542 1542 1542 1542 1541 1541 1541 1540 1540 1540 1540 1540 1539 1539 1542 1543 1543 1542 1541 1540 1540 1539 1538 1537 1537 1536 1535 1535 1534 1533 1532 1532 1532 1532 1532 1533 1533 1534 1534 1533 1532 1533 1532 1531 1530 1529 1528 1528 1527 1527 1527 1526 1527 1527 1524 1524 1524 1524 1519 1510 1510 1513 1513 1514 1514 1514 1515 1515 1516 1517 1519 1521
1543 1543 1543 1543 1543 1543 1543 1543 1543 1544 1544 1544 1544 1543 1543 1543 1543 1543 1542 1542 1542 1542 1541 1540 1541 1540 1540 1540 1538 1541 1545 1544 1543 1542 1541 1541 1540 1539 1539 1538 1537 1537 1536 1535 1535 1533 1533 1532 1532 1532 1532 1532 1533 1534 1534 1533 1533 1533 1532 1530 1529 1528 1527 1527 1526 1526 1526 1526 1527 1525 1523 1522 1524 1525 1516 1507 1510 1511 1510 1512 1511 1512 1513 1513 1515 1516 1519 1521
1544 1544 1544 1544 1544 1544 1544 1544 1544 1544 1544 1544 1544 1543 1543 1543 1543 1543 1543 1543 1542 1542 1542 1541 1541 1541 1541 1540 1539 1544 1546 1544 1543 1543 1542 1541 1540 1540 1539 1538 1537 1537 1536 1535 1535 1534 1533 1532 1532 1532 1532 1533 1533 1534 1534 1534 1533 1533 1532 1529 1528 1527 1527 1526 1526 1526 1526 1526 1525 1525 1522 1522 1525 1524 1513 1506 1509 1510 1509 1510 1509 1510 1511 1513 1515 1517 1520 1523
1544 1544 1544 1545 1545 1545 1545 1545 1545 1545 1545 1544 1544 1544 1544 1543 1543 1543 1543 1543 1543 1542 1542 1542 1542 1542 1542 1540 1542 1546 1546 1545 1544 1542 1542 1541 1540 1540 1539 1538 1538 1537 1536 1535 1535 1534 1533 1533 1532 1532 1532 1533 1534 1533 1533 1534 1534 1533 1532 1530 1527 1527 1526 1525 1526 1526 1526 1526 1525 1525 1520 1518 1523 1517 1507 1507 1508 1508 1508 1508 1508 1510 1512 1513 1516 1518 1521 1523
1545 1545 1545 1545 1545 1545 1545 1545 1545 1545 1545 1545 1545 1544 1544 1544 1543 1543 1543 1543 1543 1543 1543 1543 1543 1543 1542 1542 1545 1547 1546 1545 1544 1543 1542 1541 1541 1540 1539 1538 1537 1537 1536 1535 1534 1534 1534 1533 1533 1533 1533 1533 1534 1534 1534 1534 1533 1532 1533 1533 1530 1528 1525 1526 1528 1527 1526 1525 1525 1527 1518 1509 1514 1512 1506 1508 1507 1506 1507 1507 1509 1511 1512 1514 1516 1519 1521 1523
1546 1546 1546 1546 1546 1546 1546 1546 1545 1545 1545 1545 1545 1545 1545 1544 1544 1544 1544 1544 1544 1544 1544 1544 1543 1543 1542 1544 1547 1547 1547 1546 1544 1543 1542 1541 1541 1540 1539 1538 1537 1537 1536 1535 1535 1534 1534 1533 1533 1533 1533 1534 1535 1535 1534 1535 1534 1534 1533 1534 1539 1535 1525 1525 1529 1526 1525 1525 1525 1529 1522 1506 1507 1510 1507 1507 1506 1506 1507 1507 1510 1511 1513 1515 1517 1520 1521 1523
1547 1547 1547 1547 1547 1547 1546 1546 1546 1546 1545 1545 1545 1545 1545 1545 1545 1545 1545 1545 1544 1544 1544 1544 1544 1544 1544 1545 1547 1547 1547 1545 1543 1542 1541 1541 1541 1540 1539 1538 1537 1537 1536 1535 1535 1534 1534 1534 1534 1533 1534 1534 1534 1534 1535 1535 1536 1539 1534 1532 1542 1540 1529 1527 1528 1526 1525 1526 1526 1528 1522 1507 1505 1509 1507 1507 1506 1506 1507 1508 1511 1511 1513 1515 1517 1520 1520 1522
1547 1548 1548 1548 1548 1547 1547 1547 1546 1546 1545 1545 1545 1545 1546 1546 1546 1546 1546 1545 1545 1545 1544 1544 1544 1543 1544 1547 1548 1547 1546 1544 1543 1543 1542 1541 1540 1539 1539 1538 1537 1536 1535 1535 1535 1534 1534 1533 1534 1535 1535 1535 1537 1537 1534 1534 1536 1543 1542 1537 1538 1538 1535 1529 1525 1526 1526 1526 1527 1528 1522 1508 1504 1507 1506 1507 1507 1507 1508 1509 1511 1512 1514 1516 1518 1519 1520 1522
1548 1549 1549 1549 1548 1548 1548 1548 1547 1546 1546 1545 1546 1546 1546 1546 1546 1546 1546 1545 1546 1546 1545 1545 1544 1543 1546 1548 1549 1548 1547 1546 1545 1544 1542 1541 1540 1540 1539 1538 1537 1536 1535 1535 1535 1534 1533 1533 1534 1535 1536 1539 1542 1538 1535 1539 1541 1543 1546 1544 1541 1541 1541 1532 1524 1524 1526 1526 1526 1527 1522 1509 1504 1507 1507 1507 1507 1507 1509 1509 1511 1512 1514 1516 1518 1519 1520 1522
1549 1549 1549 1549 1549 1549 1549 1549 1548 1547 1547 1547 1547 1547 1547 1547 1547 1546 1546 1546 1546 1545 1545 1545 1544 1545 1549 1550 1551 1550 1549 1548 1546 1544 1543 1541 1540 1540 1539 1538 1537 1536 1535 1534 1534 1534 1533 1533 1534 1535 1538 1542 1545 1542 1541 1546 1548 1546 1548 1546 1544 1545 1543 1538 1529 1523 1524 1525 1525 1526 1521 1509 1504 1507 1508 1508 1508 1508 1508 1509 1510 1511 1513 1516 1518 1519 1521 1522
1550 1550 1550 1550 1550 1550 1550 1550 1549 1549 1548 1548 1548 1548 1548 1548 1547 1547 1546 1546 1546 1547 1550 1550 1548 1551 1554 1553 1553 1552 1550 1549 1548 1545 1543 1542 1541 1540 1539 1538 1537 1536 1534 1535 1535 1535 1535 1535 1537 1539 1542 1546 1549 1550 1548 1550 1550 1550 1551 1551 1550 1547 1542 1538 1531 1523 1524 1525 1523 1524 1517 1508 1506 1506 1507 1509 1508 1508 1507 1508 1509 1510 1513 1515 1518 1519 1522 1524
1551 1550 1550 1550 1550 1550 1550 1550 1550 1550 1550 1549 1549 1549 1549 1548 1548 1549 1548 1547 1549 1553 1556 1556 1554 1555 1556 1555 1554 1552 1551 1550 1549 1546 1544 1542 1541 1540 1539 1538 1537 1535 1537 1540 1539 1539 1539 1540 1544 1547 1549 1551 1553 1554 1553 1553 1554 1553 1553 1553 1553 1551 1542 1534 1529 1523 1525 1524 1518 1518 1514 1510 1510 1507 1509 1510 1507 1508 1508 1509 1510 1511 1513 1516 1518 1521 1523 1525
1551 1551 1551 1551 1551 1551 1551 1551 1551 1550 1550 1550 1550 1549 1549 1548 1548 1551 1551 1551 1555 1557 1557 1557 1556 1556 1555 1555 1554 1552 1552 1551 1549 1547 1545 1543 1541 1540 1540 1539 1538 1538 1543 1545 1542 1541 1541 1543 1549 1552 1553 1555 1555 1556 1556 1555 1556 1554 1553 1552 1551 1550 1539 1530 1527 1524 1526 1524 1516 1515 1513 1510 1511 1510 1512 1512 1509 1510 1511 1511 1511 1512 1515 1518 1520 1522 1524 1526
1551 1551 1552 1552 1552 1552 1551 1551 1551 1551 1551 1551 1550 1549 1549 1548 1548 1550 1551 1553 1557 1557 1557 1557 1557 1556 1556 1555 1554 1553 1552 1549 1548 1546 1545 1544 1541 1541 1542 1542 1543 1546 1548 1546 1542 1543 1544 1548 1553 1555 1556 1557 1557 1558 1557 1555 1556 1554 1553 1553 1548 1544 1535 1524 1523 1524 1528 1526 1516 1516 1516 1510 1511 1515 1515 1514 1513 1514 1513 1512 1513 1514 1517 1520 1522 1525 1526 1528
1552 1552 1552 1552 1552 1552 1552 1552 1551 1552 1551 1551 1551 1550 1550 1550 1550 1550 1550 1552 1556 1558 1558 1558 1557 1557 1556 1555 1554 1554 1552 1551 1550 1548 1547 1545 1543 1543 1544 1545 1547 1549 1550 1549 1547 1546 1547 1552 1556 1557 1557 1556 1556 1557 1557 1555 1554 1552 1552 1553 1546 1543 1542 1530 1521 1522 1527 1527 1521 1520 1516 1508 1511 1515 1515 1518 1517 1517 1516 1514 1516 1517 1519 1522 1525 1527 1529 1530
1552 1553 1553 1553 1553 1552 1552 1552 1552 1552 1551 1551 1551 1551 1551 1551 1551 1551 1551 1553 1557 1558 1558 1558 1558 1557 1556 1556 1555 1554 1553 1554 1555 1552 1551 1548 1546 1546 1546 1548 1549 1549 1552 1554 1553 1550 1551 1556 1558 1558 1557 1556 1554 1554 1555 1553 1551 1551 1550 1550 1546 1543 1546 1540 1529 1524 1523 1525 1527 1523 1512 1505 1511 1514 1515 1521 1520 1519 1520 1519 1520 1522 1524 1526 1528 1530 1532 1532
1553 1553 1553 1553 1553 1553 1553 1552 1552 1552 1551 1551 1551 1551 1551 1551 1551 1551 1551 1554 1558 1559 1559 1558 1558 1557 1557 1557 1555 1555 1554 1555 1556 1555 1553 1551 1549 1549 1549 1550 1550 1549 1553 1556 1554 1551 1553 1557 1557 1556 1556 1556 1554 1552 1555 1555 1553 1553 1548 1547 1547 1544 1545 1541 1536 1533 1525 1522 1525 1527 1522 1511 1508 1514 1520 1524 1523 1524 1525 1524 1525 1527 1528 1529 1531 1532 1533 1533
1554 1554 1554 1554 1554 1553 1553 1553 1552 1552 1552 1552 1552 1552 1552 1552 1552 1551 1552 1558 1561 1561 1560 1559 1559 1559 1558 1557 1555 1554 1554 1555 1558 1557 1555 1553 1552 1551 1551 1553 1552 1552 1554 1555 1554 1553 1555 1557 1557 1556 1554 1554 1552 1552 1556 1557 1556 1553 1548 1549 1550 1547 1546 1540 1537 1539 1532 1526 1525 1529 1533 1523 1509 1513 1524 1528 1527 1529 1529 1529 1530 1531 1532 1532 1533 1534 1534 1532
1554 1554 1554 1554 1554 1553 1553 1553 1552 1552 1552 1552 1552 1552 1551 1551 1552 1551 1553 1561 1565 1565 1564 1561 1562 1562 1560 1560 1557 1555 1558 1559 1558 1558 1556 1554 1553 1552 1553 1555 1555 1555 1556 1554 1553 1555 1557 1556 1555 1555 1554 1552 1552 1553 1555 1557 1557 1551 1548 1551 1549 1544 1542 1538 1539 1541 1538 1534 1530 1528 1532 1529 1517 1516 1526 1528 1529 1533 1533 1533 1534 1534 1535 1534 1535 1535 1534 1533
1554 1554 1554 1554 1554 1553 1553 1553 1552 1552 1552 1552 1552 1551 1551 1552 1552 1551 1555 1565 1569 1567 1566 1565 1564 1564 1563 1563 1560 1559 1564 1563 1559 1560 1559 1556 1554 1553 1554 1557 1556 1556 1557 1554 1552 1556 1558 1555 1556 1556 1554 1553 1553 1555 1556 1557 1556 1549 1548 1550 1547 1542 1540 1540 1539 1540 1544 1537 1527 1528 1530 1526 1516 1515 1524 1526 1526 1534 1536 1537 1538 1537 1537 1536 1536 1535 1534 1533
1554 1554 1554 1554 1553 1553 1553 1552 1552 1552 1551 1552 1551 1551 1552 1551 1551 1553 1557 1566 1571 1568 1568 1566 1564 1565 1564 1563 1563 1563 1565 1564 1563 1563 1561 1558 1555 1553 1555 1557 1558 1557 1557 1555 1554 1558 1558 1556 1558 1557 1556 1556 1555 1556 1555 1555 1555 1550 1549 1547 1542 1539 1540 1544 1541 1537 1540 1532 1523 1529 1532 1527 1516 1513 1524 1526 1526 1535 1538 1539 1540 1538 1538 1537 1536 1535 1533 1531
1554 1554 1554 1553 1553 1552 1552 1552 1552 1552 1551 1551 1551 1551 1551 1551 1553 1557 1561 1568 1571 1570 1569 1567 1567 1569 1566 1564 1564 1565 1566 1566 1566 1565 1562 1562 1559 1555 1555 1555 1556 1557 1558 1557 1555 1557 1559 1558 1559 1558 1558 1559 1557 1556 1554 1555 1555 1550 1548 1543 1535 1534 1538 1545 1545 1537 1529 1522 1524 1531 1532 1533 1526 1521 1531 1535 1532 1537 1539 1540 1541 1539 1539 1538 1536 1534 1531 1529
1554 1553 1553 1553 1552 1552 1551 1551 1551 1551 1551 1551 1551 1551 1551 1553 1557 1561 1567 1572 1572 1571 1569 1569 1572 1572 1571 1571 1570 1569 1569 1568 1568 1567 1566 1566 1561 1556 1556 1559 1560 1558 1557 1560 1559 1557 1558 1557 1558 1559 1560 1559 1558 1556 1553 1555 1556 1552 1550 1544 1534 1533 1535 1536 1538 1538 1533 1526 1529 1532 1531 1535 1528 1523 1537 1541 1538 1540 1541 1542 1543 1540 1539 1537 1535 1533 1529 1527
1553 1553 1552 1552 1551 1551 1550 1550 1551 1551 1551 1551 1551 1551 1552 1555 1560 1567 1573 1573 1571 1573 1574 1574 1575 1575 1576 1577 1576 1575 1574 1571 1571 1571 1571 1570 1568 1569 1572 1576 1575 1564 1558 1564 1566 1560 1556 1557 1560 1560 1559 1560 1557 1554 1553 1554 1554 1553 1551 1548 1549 1551 1549 1543 1540 1543 1542 1532 1530 1532 1531 1533 1527 1527 1540 1544 1541 1542 1541 1542 1542 1540 1539 1536 1534 1531 1528 1526
1553 1552 1551 1551 1550 1550 1550 1550 1550 1550 1551 1551 1550 1552 1553 1555 1565 1578 1580 1573 1572 1577 1579 1578 1578 1578 1578 1575 1575 1578 1577 1574 1573 1573 1574 1574 1576 1581 1583 1584 1583 1575 1569 1571 1574 1568 1558 1556 1560 1559 1558 1559 1558 1557 1558 1555 1555 1557 1556 1557 1565 1571 1572 1568 1557 1548 1541 1528 1523 1528 1531 1530 1525 1530 1542 1543 1542 1542 1541 1541 1541 1539 1538 1536 1533 1530 1527 1525
1552 1552 1551 1550 1550 1550 1550 1550 1550 1550 1550 1551 1550 1552 1554 1558 1572 1583 1580 1576 1579 1580 1580 1581 1579 1577 1577 1576 1579 1581 1577 1576 1577 1575 1574 1575 1578 1581 1584 1584 1584 1583 1580 1577 1580 1580 1568 1558 1558 1559 1560 1560 1560 1562 1564 1561 1561 1563 1564 1563 1567 1573 1581 1579 1565 1556 1551 1537 1527 1528 1533 1530 1526 1532 1541 1542 1541 1541 1540 1540 1539 1538 1536 1534 1532 1529 1526 1523
1552 1552 1551 1550 1550 1550 1550 1549 1550 1550 1550 1551 1552 1553 1557 1565 1578 1581 1577 1579 1582 1580 1580 1582 1579 1575 1575 1579 1583 1583 1579 1576 1578 1578 1577 1580 1582 1585 1587 1587 1586 1586 1583 1578 1583 1587 1578 1566 1560 1561 1562 1561 1561 1563 1564 1562 1562 1564 1565 1566 1567 1569 1573 1573 1565 1561 1558 1546 1534 1530 1531 1532 1533 1538 1542 1541 1540 1540 1539 1538 1537 1536 1534 1532 1529 1527 1525 1522
1553 1552 1551 1551 1550 1550 1550 1550 1550 1550 1550 1551 1551 1558 1567 1574 1578 1579 1578 1580 1581 1581 1580 1579 1578 1575 1573 1577 1581 1582 1582 1579 1578 1578 1580 1584 1587 1588 1590 1590 1590 1590 1586 1584 1587 1588 1579 1567 1560 1562 1562 1562 1564 1564 1563 1563 1560 1562 1565 1566 1568 1567 1567 1568 1564 1557 1554 1549 1537 1529 1530 1531 1533 1540 1541 1540 1540 1538 1538 1538 1536 1535 1532 1530 1528 1526 1524 1521
1553 1552 1551 1551 1550 1550 1550 1550 1550 1550 1550 1550 1553 1566 1578 1580 1580 1581 1582 1581 1581 1584 1579 1574 1578 1580 1578 1579 1579 1580 1580 1579 1578 1578 1579 1585 1587 1588 1591 1591 1590 1591 1589 1589 1589 1590 1586 1571 1562 1565 1562 1561 1565 1563 1563 1565 1562 1563 1567 1566 1566 1567 1568 1571 1570 1564 1562 1555 1535 1527 1534 1533 1530 1536 1540 1540 1541 1539 1538 1537 1535 1534 1531 1529 1527 1525 1523 1520
1553 1553 1552 1551 1550 1550 1550 1549 1550 1550 1550 1553 1563 1575 1581 1581 1580 1581 1582 1581 1582 1583 1578 1575 1580 1585 1585 1583 1582 1585 1583 1577 1579 1581 1581 1583 1585 1588 1591 1591 1591 1591 1591 1590 1588 1590 1592 1576 1563 1567 1566 1562 1565 1564 1562 1565 1564 1565 1568 1567 1568 1571 1573 1575 1579 1577 1573 1564 1543 1529 1533 1535 1532 1536 1540 1540 1542 1541 1538 1536 1534 1532 1529 1527 1525 1523 1521 1518
1553 1553 1552 1552 1551 1550 1550 1550 1551 1550 1549 1557 1570 1577 1579 1580 1581 1581 1582 1582 1582 1581 1579 1580 1584 1586 1587 1586 1585 1588 1588 1582 1583 1585 1582 1583 1585 1589 1592 1591 1591 1591 1590 1591 1589 1590 1593 1582 1567 1566 1568 1563 1561 1563 1565 1567 1566 1565 1567 1569 1571 1574 1577 1580 1583 1580 1575 1573 1560 1539 1531 1535 1536 1537 1539 1541 1542 1540 1538 1535 1533 1530 1529 1527 1524 1521 1519 1516
1553 1552 1552 1552 1551 1551 1551 1550 1550 1552 1554 1564 1574 1577 1579 1581 1581 1581 1582 1582 1582 1581 1581 1584 1586 1584 1586 1589 1588 1589 1590 1589 1588 1586 1584 1586 1587 1588 1592 1593 1592 1591 1590 1590 1591 1589 1592 1590 1575 1565 1566 1564 1561 1564 1567 1568 1568 1567 1568 1573 1575 1576 1576 1577 1579 1578 1577 1576 1571 1558 1543 1535 1536 1538 1539 1540 1541 1539 1537 1534 1531 1529 1527 1525 1523 1521 1517 1514
1552 1552 1552 1552 1552 1552 1551 1551 1555 1560 1566 1573 1577 1578 1580 1579 1580 1582 1582 1582 1583 1583 1583 1585 1585 1585 1586 1587 1589 1590 1590 1590 1590 1588 1588 1589 1587 1587 1591 1593 1592 1592 1590 1589 1591 1590 1590 1591 1584 1574 1570 1564 1562 1567 1568 1567 1568 1568 1571 1576 1580 1580 1577 1577 1577 1576 1578 1576 1575 1575 1561 1538 1534 1539 1539 1539 1539 1537 1535 1533 1531 1529 1526 1524 1523 1520 1517 1513
1552 1553 1553 1552 1552 1552 1551 1556 1564 1568 1571 1574 1576 1577 1579 1579 1580 1582 1582 1582 1583 1583 1584 1585 1586 1587 1587 1587 1589 1591 1589 1588 1589 1589 1589 1590 1590 1589 1591 1592 1591 1591 1591 1588 1590 1592 1590 1593 1591 1582 1573 1565 1564 1568 1568 1568 1568 1570 1575 1579 1581 1582 1582 1585 1583 1576 1577 1576 1572 1574 1562 1540 1535 1538 1537 1538 1538 1535 1535 1533 1531 1528 1526 1524 1522 1518 1515 1512
1552 1553 1554 1553 1553 1553 1552 1560 1569 1572 1574 1577 1578 1579 1579 1579 1580 1581 1582 1583 1583 1583 1584 1585 1586 1586 1587 1588 1589 1589 1588 1588 1589 1589 1590 1591 1592 1592 1592 1592 1591 1591 1590 1588 1590 1590 1590 1593 1589 1576 1567 1564 1565 1568 1568 1568 1568 1570 1576 1581 1583 1584 1584 1586 1586 1582 1583 1580 1574 1573 1559 1537 1533 1537 1536 1537 1536 1535 1536 1534 1531 1528 1525 1523 1520 1516 1513 1510
1553 1553 1554 1553 1553 1553 1553 1558 1567 1573 1577 1578 1578 1579 1579 1580 1581 1581 1582 1582 1583 1584 1583 1584 1586 1585 1586 1588 1588 1588 1588 1586 1587 1590 1591 1591 1591 1591 1592 1592 1591 1591 1590 1588 1590 1589 1586 1588 1585 1575 1570 1566 1563 1565 1566 1565 1567 1570 1576 1583 1584 1586 1586 1585 1587 1590 1588 1578 1575 1577 1560 1534 1528 1534 1535 1535 1535 1535 1535 1533 1530 1527 1524 1522 1518 1515 1512 1509
1554 1554 1554 1554 1553 1553 1555 1558 1563 1570 1577 1577 1577 1580 1580 1580 1581 1581 1582 1583 1583 1584 1583 1584 1586 1585 1588 1589 1587 1589 1589 1586 1586 1590 1592 1592 1592 1592 1592 1591 1591 1591 1590 1590 1591 1589 1587 1588 1587 1583 1586 1585 1578 1575 1571 1568 1569 1571 1576 1583 1583 1584 1587 1585 1586 1590 1584 1575 1577 1579 1561 1535 1528 1532 1533 1534 1535 1533 1531 1530 1528 1525 1523 1521 1517 1513 1511 1508
1554 1554 1555 1555 1554 1554 1557 1561 1563 1566 1573 1573 1575 1580 1580 1579 1581 1582 1582 1583 1583 1584 1584 1584 1586 1586 1587 1587 1586 1587 1589 1589 1588 1589 1590 1590 1590 1592 1592 1591 1591 1591 1590 1591 1590 1589 1591 1592 1589 1586 1588 1589 1585 1579 1573 1572 1575 1574 1576 1582 1583 1585 1587 1584 1583 1584 1581 1576 1572 1567 1557 1540 1530 1532 1533 1534 1534 1532 1530 1527 1525 1523 1521 1518 1515 1512 1509 1506
1553 1555 1557 1557 1556 1557 1560 1564 1565 1566 1570 1570 1572 1578 1580 1579 1581 1582 1582 1583 1583 1584 1584 1585 1585 1585 1584 1585 1585 1585 1587 1590 1590 1588 1589 1591 1591 1592 1592 1591 1591 1590 1590 1591 1589 1590 1590 1588 1588 1589 1586 1582 1581 1577 1575 1577 1580 1577 1578 1583 1584 1584 1585 1584 1583 1580 1579 1576 1562 1551 1552 1546 1536 1534 1536 1535 1534 1532 1529 1527 1524 1521 1518 1515 1512 1509 1506 1503
1554 1556 1559 1559 1558 1562 1564 1565 1567 1568 1569 1571 1575 1579 1579 1579 1580 1580 1581 1583 1583 1583 1583 1583 1584 1585 1584 1585 1584 1583 1586 1588 1588 1588 1591 1592 1592 1592 1591 1592 1592 1590 1591 1591 1589 1592 1591 1586 1590 1593 1586 1582 1583 1579 1577 1580 1580 1578 1579 1582 1583 1583 1583 1583 1582 1577 1577 1578 1564 1549 1550 1549 1541 1539 1539 1537 1536 1533 1529 1527 1523 1520 1517 1514 1511 1507 1504 1501
1555 1556 1559 1560 1561 1565 1566 1567 1568 1568 1569 1572 1576 1579 1578 1577 1578 1579 1581 1582 1582 1584 1583 1581 1583 1585 1586 1586 1584 1584 1585 1583 1583 1587 1590 1591 1591 1590 1589 1590 1590 1590 1591 1590 1590 1593 1590 1587 1591 1594 1588 1583 1580 1576 1576 1579 1579 1578 1580 1581 1581 1582 1582 1580 1578 1575 1575 1573 1564 1555 1553 1550 1546 1544 1542 1539 1537 1534 1529 1525 1523 1520 1516 1513 1510 1507 1503 1500
1554 1555 1557 1559 1562 1566 1568 1568 1569 1568 1570 1572 1572 1575 1578 1576 1576 1579 1581 1581 1580 1582 1583 1581 1583 1585 1586 1586 1585 1584 1584 1583 1581 1585 1588 1588 1588 1589 1588 1587 1588 1590 1590 1591 1593 1593 1589 1587 1592 1596 1588 1577 1572 1572 1574 1575 1575 1576 1580 1581 1580 1580 1579 1578 1576 1573 1570 1564 1558 1557 1556 1551 1547 1546 1543 1539 1536 1532 1527 1524 1522 1520 1516 1513 1510 1506 1502 1498
1554 1554 1555 1557 1563 1569 1569 1569 1570 1568 1569 1571 1571 1573 1577 1576 1576 1578 1580 1581 1580 1580 1582 1581 1582 1585 1586 1586 1585 1583 1583 1584 1583 1584 1586 1586 1585 1586 1586 1586 1588 1589 1589 1592 1593 1592 1590 1590 1592 1597 1587 1572 1569 1571 1570 1574 1579 1579 1579 1579 1579 1578 1577 1575 1573 1569 1565 1559 1555 1557 1558 1552 1546 1544 1541 1537 1533 1530 1528 1525 1521 1518 1515 1513 1510 1506 1502 1497
1554 1555 1555 1555 1562 1570 1570 1569 1570 1567 1567 1570 1571 1573 1574 1575 1577 1577 1577 1580 1581 1580 1581 1582 1581 1583 1584 1583 1583 1583 1583 1583 1583 1584 1584 1585 1585 1585 1586 1586 1587 1588 1588 1591 1593 1594 1595 1590 1590 1596 1585 1567 1566 1571 1570 1571 1570 1567 1571 1576 1576 1576 1573 1568 1566 1562 1560 1560 1560 1560 1558 1550 1544 1541 1537 1534 1532 1530 1528 1526 1521 1517 1514 1512 1508 1504 1500 1496